User: anonymous
Location: Caltech
(34.1382°N, 118.1253°W)
Time: 12:53:43
(UTC-07:00)
Language:

Cosmos 1733 Rocket - Orbit

View from above orbital plane
View from above orbital plane
View from above satellite
View from above satellite

Ground track
Ground track

The orbit data is extracted from the following two-line orbital elements,

1 16612U 86018B   14294.49692311  .00000642  00000-0  74616-4 0   502
2 16612 082.5145 126.0097 0019386 112.2536 307.0356 14.83660770447646
Epoch (UTC): 21 October 2014 11:55:34
Eccentricity: 0.0019386
inclination: 82.5145°
perigee height: 604 km
apogee height: 631 km
right ascension of ascending node: 126.0097°
argument of perigee: 112.2536°
revolutions per day: 14.83660770
mean anomaly at epoch: 307.0356°
orbit number at epoch: 44764

The dashed part of the orbit path shows where the satellite is in the earth's shadow,  

DLR